Simultaneous Nadir Overpasses (SNOs) Predictions

Prediction of SNOs between GOES-15 and NOAA-20 Satellite Orbit:

Table of predicted SNOs for the next 14.0 days since TLE Epoch: 11/28/2020
Index Date Time (GOES-15) GOES-15 Lat,Lon NOAA-20 Lat,Lon Distance(km) Time Diff (sec)
1 11/29/2020 22:10:57 0.01,-127.90 -0.73,-131.14 370.34 80
2 11/30/2020 21:49:33 0.03,-127.92 0.33,-126.62 148.21 80
3 12/02/2020 10:14:00 0.01,-127.96 0.91,-131.88 447.46 80
4 12/03/2020 09:52:37 -0.01,-127.98 -0.15,-127.36 70.85 80
5 12/05/2020 21:58:29 -0.00,-128.03 -0.06,-128.13 12.15 80
6 12/08/2020 10:01:34 0.02,-128.08 0.17,-128.88 91.09 80
7 12/09/2020 09:40:09 -0.01,-128.09 -0.83,-124.35 426.61 80
8 12/10/2020 22:04:45 -0.03,-128.12 -0.38,-129.65 174.36 80
9 12/11/2020 21:43:21 -0.01,-128.13 0.63,-125.12 342.74 80
